Location: Nicosia
(35.1670°N, 33.3670°E)
Time: 21:59:39
(UTC+02:00)

Hubble Space Telescope - Pass Details

Date: 30 November 2023
Orbit: 516 x 519 km, 28.5° (Epoch: 27 February)

Event Time Altitude Azimuth Distance (km) Brightness Sun altitude
Rises 18:58:57 0° 260° (W) 2,623 5.5 -29.0°
Reaches altitude 10° 19:01:37 10° 243° (WSW) 1,737 4.2 -29.5°
Enters shadow 19:03:28 18° 218° (SW) 1,314 3.1 -29.9°
